Weather in White Plains

United States     41°01′25″N   73°45′48″W
temp.,
°C
wind,
m/s
gust,
m/s
humid.,
%
clouds,
%
prec.,
mm/h
press.,
hPa
HPBL,
m
23 may, mon
mon2323:00+22nnw387857 0.4 1016366
02:00+18n597388 0.6 1018446
05:00+16n51162100 0.0 1019548
08:00+16n6115095 0.0 1022705
11:00+19n6737100 0.0 1022933
14:00+23n453094 0.0 10221331
17:00+23n4432100 0.0 10211373
20:00+20n3545100 0.0 1022325
24 may, tue
tue2423:00+17ene1454100 0.0 1023188
02:00+16sse3463100 0.0 1024553
05:00+15ese2363100 0.0 1024368
08:00+16e3463100 0.0 1025515
11:00+19e444993 0.0 10261059
14:00+21e44385 0.0 10251299
17:00+21se333942 0.0 10251418
20:00+18sse4541100 0.0 1026496
25 may, wed
wed2523:00+16ese3546100 0.0 1026491
02:00+15e2356100 0.0 1026458
05:00+14e2365100 0.0 1026379
08:00+14e3465100 0.0 1028427
11:00+15e2357100 0.0 1028480
14:00+17e2349100 0.0 1028529
17:00+18e3349100 0.0 1027550
20:00+16se3452100 0.0 1027367
26 may, thu
thu2623:00+15sse354886 0.0 1028339
02:00+13sse246294 0.0 1027230
05:00+13se247721 0.0 1026158
08:00+16sse366860 0.0 1026641
11:00+18s4765100 0.0 1025839
14:00+18s4769100 0.0 1024754
17:00+17s4979100 0.1 1021661
20:00+17sse31089100 0.2 1020578
27 may, fri
fri2723:00+17s3995100 0.0 1019395
02:00+17sw169769 0.1 1017292
05:00+16sw2899100 0.0 1016328
08:00+18sw2795100 0.0 1016318
11:00+24sw596792 0.1 1015852
14:00+29sw6104594 0.1 10121881
17:00+29sw6104691 0.0 10111976
20:00+23ssw4982100 0.9 1012403